Погода в Северном

Россия / Новосибирская область     56°01′09″N   82°41′17″E
темп.,
°C
ветер,
м/с
пор.,
м/с
влажн.,
%
обл.,
%
осадки,
мм/ч
давл.,
гПа
погр.,
м
16 мая, вс
вс1601:00+14вюв0195100 3.1 101524
04:00+12св129832 0.0 101544
07:00+13ю129344 0.0 1014131
10:00+19з366558 0.1 1012648
13:00+24зсз5845100 0.1 10101812
16:00+22ссз5849100 0.0 10101635
19:00+17ссв487960 1.3 1010707
22:00+12ссв368997 0.1 1013419
17 мая, пн
пн1701:00+11св2488100 0.1 1015357
04:00+10с2388100 0.0 1016279
07:00+10ссв238496 0.0 1017297
10:00+14с226066 0.0 1017954
13:00+19сз234241 0.0 10161530
16:00+21зсз353617 0.0 10142147
19:00+21зсз254133 0.0 10141598
22:00+16ююз1264100 0.4 101240
18 мая, вт
вт1801:00+13зюз1597100 11.3 1011230
04:00+14юз5149296 5.9 1008732
07:00+15зюз288893 6.4 1006383
10:00+19зсз477057 0.0 1005886
13:00+22зсз575276 0.3 10041833
16:00+19ссз6107045 1.9 10051262
19:00+18ссз476775 2.1 10061103
22:00+12ссв249256 0.1 1007104
19 мая, ср
ср1901:00+10св259883 0.1 1007167
04:00+10всв3594100 0.8 1005318
07:00+9всв3897100 5.8 1002513
10:00+7св81393100 13.3 1003888
13:00+5св61592100 19.7 10061081
16:00+9ссв51367100 1.6 10081692
19:00+10ссв4115070 1.6 10102491
22:00+5ссз3107011 0.0 1013263
20 мая, чт
чт2001:00+3сз310795 0.0 1015309
04:00+1ссз310785 0.0 1017340
07:00+2ссз39682 0.0 1019530
10:00+5ссз5842100 0.0 10192302
13:00+6с5838100 0.0 10192823
16:00+7ссз474090 0.0 10202374
19:00+8ссз36388 0.0 10212400
22:00+3сз246195 0.0 102366